{"data":{"norad_id":59185,"epoch":"2026-05-25T00:00:28.484352Z","epoch_age_seconds":89204,"freshness":"FRESH","line1":"1 59185U 24045H   26145.00032968  .00001466  00000+0  62767-4 0  9997","line2":"2 59185  43.0036  11.0791 0001375 282.6056  77.4642 15.27592522124951","mean_motion":15.27592522,"eccentricity":0.0001375,"inclination_deg":43.0036,"raan_deg":11.0791,"arg_perigee_deg":282.6056,"mean_anomaly_deg":77.4642,"bstar":6.2767e-5,"rev_number":12495,"period_min":94.265975989113,"perigee_km":482.06819299039,"apogee_km":483.95500885565,"semimajor_km":6861.148600923,"source":"CELESTRAK","updated_at":"2026-05-25T13:38:18.859990Z"}}